FENGYUN 1C DEB, 31974

Orbit data source: Space-Track

FENGYUN 1C DEB, 31974 is space debris in SSO originally from a launch on Mon, 10 May 1999 UTC launched from the Taiyaun Space Center, China (TSC). Fengyun 1C debris stems from the Chinese weather satellite Fengyun-1C, which was intentionally destroyed by a Chinese anti-satellite missile in 2007. This event dramatically increased the amount of space debris, with thousands of trackable fragments posing hazards to satellites and human spaceflight. The Fengyun 1C debris cloud has become a focal point in discussions about space sustainability and the need for international regulations to prevent the creation of new debris.

Loading next visibility...
Identifier
31974, 1999-025CPB
Orbit
SSO
Country
Flag of CNCN / PRC
Related business
Manufacturer
Unknown
Mission
Spacecraft
Bus & Motor
Unknown
Mass
Unknown
Launch date (UTC)
1999-05-10 (27 years ago)
Launch vehicle
Unknown
Launch site
Taiyaun Space Center, China (TSC)
Object type
Payload
Rocket body
Debris
Shape & HBR
Unknown shape, 0.1 m
Radar Cross Section
Small (<0.1 m²)

Expand to show TLE details & history
Last TLE update: 5 days ago

TLE from 5 days ago
0 FENGYUN 1C DEB
1 31974U 99025CPB 26090.45808459  .00006100  00000-0  22800-2 0  9990
2 31974  98.3770 102.5710 0069418 342.2539  17.6221 14.30829397709766
Epoch: 2026-03-31T10:59Z
TLE epoch observation values (Epoch: 2026-03-31T10:59:38.508Z)
Latitude
-0.00002°
Longitude
108.82557°
Altitude
744.504 km
Speed
7.507 km/s
True Right ascension
06h 50m 17s
True Declination
0° 00' 00"
Sunlit
Object was in daylight at epoch
Visualization orbit readout
Latitude
Unknown
Longitude
Unknown
Altitude
Unknown
Speed
Unknown
Apparent Right ascension
Unknown
Apparent Declination
Unknown
Sunlit
N/A
Visualization observer readout
Local Sidereal Time
23:28:43
Azimuth
Unknown
Elevation
Unknown
Doppler factor
Unknown
Orbital elements
Apogee altitude
835.821 km
Perigee altitude
736.355 km
Semi-major axis
7,164.225 km
Eccentricity
0.00694
Inclination
98.377°
RAAN
102.571°
Arg. of periapsis
342.2539°
True anomaly
17.86493°
Mean anomaly
17.6221°
Eccentric anomaly
17.74331°
Mean motion
3.57923 °/min
Orbital period
100.58 mins
BSTAR
0.00228
Loading maneuver chart data...
Computing Atmospheric mass density...

Documentation

Showing up to 5 results
|